Timeline UpdatesTrip UpdatesNews PostsPvt PostsTravel TipsAdmin PostsConv PostsFollowed PostsChat RequestsBlog PostsPNR Posts

Disclaimer
Search
 
 
Fri Aug 1, 2014 01:07:23 ISTHomeTrainsΣChainsAtlasPNRForumGalleryNewsFAQTripsMembersLoginFeedback
No Recent News for this Train
Other Trains in the News **new
Latest...
Short Origination from Manikpur from 15/4/14-19/5/14 and from 26/5/14-30/5/14 #1092793
Sun May 11, 2014 (12:45PM)
⇐ Return Journey: Train# 51189

51190/Allahabad Itarsi Passenger (UnReserved)

Sep 11 2013 (1:45PM)
Change Departure Station:
Change Arrival Station:
Post a Train Travel TipPost a Train Travel Tip **new
Post a Comment/Question/Picture/VideoPost a Comment/Question/Picture/Video
Pantry/Catering
✕ NO Pantry Car
✕ NO Catering
RSA - Rake Sharing
RSA with 51158 ET-BSL Passenger
Rake/Coach Composition
Loco
WDM 2A ET/KATNI Shed
News    PNR    Forum    Time-Table    Availability    Fare Chart    Map    Arr/Dep History    Trips    Gallery    ΣChains    X/O    Timeline    
Travel Time: 9h 10m    23 halts    Distance: 245 km    Avg Speed: 26 km/hr
Type: Passenger
Zone: CR/Central
Departs @ 06:20 (Avg 1h 30m late)
Platform# 1
SMTWTFS
Jabalpur Junction/JBP 
Arrives @ 15:30 (Avg 1h 29m late)
Platform# ???
SMTWTFS
Itarsi Junction/ET 

23 halts. 25 intermediate Stations between Jabalpur Junction and Itarsi Junction

Show ALL intermediate Stations  Show Old Time-Table

#CodeStation NameX/OArrivesAvgDepartsAvgHaltPFDay#KmSpeedElevZoneAddress
1ALDAllahabad Junction (10)  -19:00+1291-366.219100mNCRAllahabad 211003, Uttar Pradesh
2NYNNaini Junction (4)  19:23+5419:25+592m31-359.19098mNCRAllahabad, Uttar Pradesh
3LKJNLink Junction CabinXO  19:28+1:0019:30+1:002m--1-354.63794mNCRAllahabad, Uttar Pradesh
4IDGJIradatganj (3)X  19:38+1:0119:40+1:092m--1-349.75199mNCRAllahabad, Uttar Pradesh
5JSRJasra (2)XO  19:47+1:1019:49+1:142m--1-343.75097mNCRJasra, Uttar Pradesh
6MFXMadaraha  19:56+1:1519:58+1:302m--1-337.954103mNCRNational Highway 76, Uttar Pradesh
7LOGLohgara (2)XO  20:05+1:3120:07+1:382m--1-331.660112mNCRLohgara, Uttar Pradesh
8SRJShankargarh (3)X  20:17+1:1720:19+1:242m--1-321.758132mNCRShankargarh, Uttar Pradesh
9MJHRMajhiariX  20:29+1:4820:31+1:532m--1-312.116145mNCRNational Highway 76, Uttar Pradesh
10BRGBargarhO  20:58+1:2421:00+1:282m--1-304.920166mNCRBargarh, Uttar Pradesh
11KTDDKataiya DandiXO  21:17+1:3321:19+1:392m--1-299.48168mNCRKataiya, Uttar Pradesh
12DBRDabhaura (2)X  22:33+4022:35+432m--1-289.231201mNCRDabhaura, Uttar Pradesh
13PNHIPanhaiX  22:55+4022:57+442m--1-278.832214mNCRManikpur, Uttar Pradesh
14MKPManikpur Junction (4)  23:20+1923:30+2110m11-266.743250mNCRManikpur, Uttar Pradesh
15MKDMarkundiO  23:52+3523:53+491m--1-250.847270mWCRState Highway 11, Madhya Pradesh
16TKYRTikaria (2)  00:03+4200:04+441m--2-242.956268mWCRMDR 11, Madhya Pradesh
17MJGMajhagawanXO  00:18+4900:19+501m--2-229.838343mWCRMajhgawa, Madhya Pradesh
18CTHRChitahra  00:28+4900:29+541m--2-224.056367mWCRMDR 11, Madhya Pradesh
19KTHAKhutahaX  00:37+5500:38+561m--2-216.545332mWCRMDR 11, Madhya Pradesh
20JTWJaitwar (2)X  00:48+4700:49+501m--2-209.140321mWCRJaitwar, Madhya Pradesh
21SAGMSagma (1)X  01:10+5001:11+551m12-195.220337mWCRSatna, Madhya Pradesh
22STASatna Junction (3)X  01:30+3201:40+4210m12-189.077322mWCRSatna, Madhya Pradesh
23LGCELagargawan (2)X  01:49+1:1601:50+1:171m--2-177.482319mWCRLagargawan, Madhya Pradesh
24UHRUnchhera (2)X  01:57+1:1901:58+1:221m--2-167.878331mWCRUnchhera, Madhya Pradesh
25MYRMaihar (3)X  02:09+1:0102:10+1:071m22-153.650353mWCRMaihar Railway Station, Madhya Pradesh
26BUUBhadanpur (2)  02:26+1:3102:27+1:331m--2-140.263362mWCRNational Highway 7, Madhya Pradesh
27UDRAmdara (2)X  02:39+1:3302:40+1:341m--2-127.553376mWCRNational Highway 34, Madhya Pradesh
28PKRDPakara Road (2)X  02:51+1:3302:52+1:491m--2-117.849381mWCRPakara, Madhya Pradesh
29JKEJukehi (3)X  03:04+1:4103:05+1:431m--2-108.056402mWCRJukehi, Madhya Pradesh
30PTWAPatwara (2)XO  03:14+1:5103:15+2:051m--2-99.714398mWCRNational Highway 34 Distric Katni Madhya Pradesh, Madhya Pradesh
31KTEKatni Junction (6)O  03:55+1:1904:05+1:2210m--2-90.634387mWCRKatni, Madhya Pradesh
32MDRRMadhavnagar Road (2)  04:14-04:16-2m--2-85.560398mWCRMadhavnagar, Madhya Pradesh
33NWRNiwar (2)  04:24+1:5404:25+2:141m--2-77.558412mWCRPipraundh, Madhya Pradesh
34SNRRSansarpur (2)  04:33-04:35-2m--2-69.752436mWCRNational Highway 7, Madhya Pradesh
35SBDSleemanabad Road (2)X  04:43+2:0004:44+2:001m--2-62.857434mWCRSleemanabad, Madhya Pradesh
36DDCEDundi (2)X  04:54+2:0804:55+2:231m--2-53.369415mWCRDundi, Madhya Pradesh
37SHRSihora Road (2)X  05:08+2:5105:10+2:512m--2-38.461388mWCRJabalpur, Madhya Pradesh
38GSPRGosalpur (2)X  05:21+2:2105:22+2:221m--2-27.339396mWCRJabalpur, Madhya Pradesh
39DOEDeori (2)X  05:38+2:1505:39+2:151m--2-16.841392mWCRJabalpur, Madhya Pradesh
40ADTLAdhartal (2)O  05:52+2:1205:53+2:231m--2-8.028393mWCRJabalpur, Madhya Pradesh
41JBP»Jabalpur Junction (4)»X  06:10+1:2506:20+1:3010m120.035416mWCRJabalpur, Madhya Pradesh
42MMLMadan Mahal (3)X  06:26+2:5006:30+2:484m123.579428mWCRJabalpur, Madhya Pradesh
43BRGTBheraghat (2)  06:40+2:4106:41+2:501m--216.672389mWCRBheraghat, Madhya Pradesh
44BHTNBhitoni (2)  06:52+2:5106:53+2:531m--229.863377mWCRJabalpur, Madhya Pradesh
45BMRBikrampur (2)O  07:04+2:5407:05+3:071m--241.431353mWCRBikrampur Dist Narsingpur., Madhya Pradesh
46SRIDShridham (3)XO  07:28+2:0507:30+2:052m3253.261373mWCRShridham, Madhya Pradesh
47KKBKarak Bel (2)  07:45+3:1207:46+3:181m--268.533375mWCRKarak Bel, Madhya Pradesh
48BELDBelkhera (2)  07:54+3:2707:55+3:281m--272.930367mWCRState Highway 22, Madhya Pradesh
49GPCGhatpindrai (2)XO  08:06+3:2608:07+3:331m--278.45366mWCRGhatpindra, Madhya Pradesh
50NUNarsinghpur (2)  09:23+2:0809:25+2:092m2284.270365mWCRNarsimhapur, Madhya Pradesh
51KYKareli (2)  09:39+2:1509:40+2:161m22100.650361mWCRKareli, Madhya Pradesh
52KFYKarapgaon (2)  09:50-09:52-2m--2108.958363mWCRNational Highway 26, Madhya Pradesh
53BNEBohani (2)  09:59+2:5210:00+2:531m--2115.760361mWCRNarsinghpur, Madhya Pradesh
54GARGadarwara (2)X  10:13+2:0010:14+2:211m22128.670352mWCRNarsinghpur, Madhya Pradesh
55SCKRSalichauka Road (2)X  10:26+2:1610:27+2:351m--2142.568355mWCRGadarwara, Madhya Pradesh
56JHTJunehta (2)  10:36-10:38-2m--2152.648353mWCRState Highway 22, Madhya Pradesh
57BKHBankhedi (2)XO  10:46+3:5110:47+4:201m--2159.020351mWCRBankheri, Madhya Pradesh
58PPIPipariya (3)X  11:45+2:2911:50+2:345m32178.052338mWCRPiparia, Madhya Pradesh
59SXFSobhapur (2)  12:00-12:02-2m--2186.639338mWCRState Highway 22, Madhya Pradesh
60SGPSohagpur (2)X  12:16+3:4312:17+3:441m--2195.750340mWCRSohagpur, Madhya Pradesh
61GMDGuramkhedi (2)  12:29+3:4112:30+3:421m--2205.727337mWCRGuramkhedi, Madhya Pradesh
62BGTABagratawa (2)X  12:59+3:2413:00+3:251m--2218.827338mWCRBagra Tawa, Madhya Pradesh
63SQLSontalai (2)XO  13:15+3:1913:17+3:242m--2225.611329mWCRItarsi, Madhya Pradesh
64GROGurra (2)  14:05+1:4014:07+1:502m--2234.68327mWCRItarsi, Madhya Pradesh
65ET•Itarsi Junction (7)•  15:30+1:29---2245.2-329mWCRItarsi 461111, Madhya Pradesh
Scroll to Top
Scroll to Bottom